This is the latest recevied weather packets stored in our database for station/object KJ4YLO. If no packets are shown the sender has not sent any weather packets the latest 10 day(s).
| Time | Temp. | Humidity | Pressure | Rain* | Wind** | Luminosity | Snow |
|---|---|---|---|---|---|---|---|
| 1778120161 | 17.78° C | 99% | 1014.1 hPa | 0 mm | - | 0 W/m² | - |
| 1778119858 | 17.78° C | 99% | 1014.5 hPa | 0 mm | - | 0 W/m² | - |
| 1778119556 | 17.78° C | 99% | 1014.1 hPa | 0 mm | - | 0 W/m² | - |
| 1778119252 | 17.78° C | 99% | 1014.5 hPa | 0 mm | - | 0 W/m² | - |
| 1778118950 | 17.78° C | 99% | 1014.5 hPa | 0 mm | - | 0 W/m² | - |
| 1778118647 | 17.78° C | 99% | 1014.8 hPa | 1.27 mm | - | 0 W/m² | - |
| 1778118344 | 17.78° C | 99% | 1014.5 hPa | 3.05 mm | - | 0 W/m² | - |
| 1778118039 | 17.78° C | 99% | 1015.1 hPa | 3.05 mm | - | 0 W/m² | - |
| 1778117737 | 17.78° C | 99% | 1014.8 hPa | 3.05 mm | - | 0 W/m² | - |
| 1778117434 | 17.78° C | 99% | 1015.1 hPa | 0 mm | - | 0 W/m² | - |
| 1778117131 | 17.78° C | 99% | 1015.1 hPa | 0 mm | - | 0 W/m² | - |
| 1778116827 | 17.78° C | 99% | 1014.8 hPa | 0 mm | - | 0 W/m² | - |
| 1778116525 | 17.78° C | 99% | 1015.1 hPa | 1.27 mm | - | 0 W/m² | - |
| 1778116220 | 17.78° C | 99% | 1015.1 hPa | 3.05 mm | - | 0 W/m² | - |
| 1778115915 | 17.78° C | 99% | 1015.1 hPa | 4.83 mm | - | 0 W/m² | - |
| 1778115612 | 17.78° C | 99% | 1015.1 hPa | 4.32 mm | - | 0 W/m² | - |
| 1778115309 | 17.78° C | 99% | 1015.5 hPa | 1.27 mm | - | 0 W/m² | - |
| 1778115006 | 17.78° C | 99% | 1015.5 hPa | 1.78 mm | - | 0 W/m² | - |
| 1778114703 | 17.78° C | 99% | 1015.1 hPa | 16.76 mm | - | 0 W/m² | - |
| 1778114400 | 17.78° C | 99% | 1015.1 hPa | 44.45 mm | - | 0 W/m² | - |
| 1778114095 | 17.78° C | 99% | 1014.5 hPa | 44.45 mm | - | 0 W/m² | - |
| 1778113790 | 17.78° C | 99% | 1015.5 hPa | 10.92 mm | - | 0 W/m² | - |
| 1778113488 | 17.78° C | 99% | 1014.1 hPa | 1.27 mm | - | 0 W/m² | - |
| 1778113184 | 17.78° C | 99% | 1012.8 hPa | 0 mm | - | 0 W/m² | - |
| 1778112880 | 17.78° C | 98% | 1012.4 hPa | 0 mm | - | 0 W/m² | - |
* Rain latest hour (hover to see other rain measurements)
** Current wind speed in m/s (hover to see current wind gust speed)